This demonstration page uses our WeatherBlox Daily Observations layout. Learn more.

Left ArrowRight Arrow

Hourly Observations for March 25, 2015

Temp ( °F °C ) Dew Point ( °F °C ) Humidity (%) Winds ( mph kmh ) Pressure ( in mb ) Visibility ( mi km ) Precip ( " mm )
12:53 am 00:53 Cloudy 32 undefined 26 -3.3 79 79 W 7 11 30.22 1024 10 16 N/A
1:53 am 01:53 Cloudy 32 undefined 26 -3.3 79 79 WNW 6 9 30.23 1024 10 16 N/A
2:53 am 02:53 Cloudy 32 undefined 26 -3.3 79 79 W 5 7 30.24 1024 10 16 N/A
3:53 am 03:53 Cloudy 31 -0.6 27 -2.8 85 85 WSW 5 7 30.25 1024 9 14 N/A
4:53 am 04:53 Cloudy 31 -0.6 27 -2.8 85 85 WSW 6 9 30.25 1024 9 14 N/A
5:53 am 05:53 Cloudy 31 -0.6 27 -2.8 85 85 WSW 5 7 30.27 1025 9 14 N/A
8:53 am 08:53 Cloudy 33 0.6 28 -2.2 82 82 SW 13 20 30.29 1026 8 13 N/A
9:26 am 09:26 Partly Cloudy 35 1.7 28 -2.2 76 76 SW 12 19 30.30 1026 10 16 N/A
9:53 am 09:53 Mostly Sunny 36 2.2 28 -2.2 73 73 SW 14 22 30.28 1025 10 16 N/A
10:53 am 10:53 Sunny 40 4.4 29 -1.7 65 65 SW 17 28 30.27 1025 10 16 N/A
11:53 am 11:53 Sunny 43 6.1 30 -1.1 60 60 WSW 18 30 30.25 1024 10 16 N/A
12:53 pm 12:53 Sunny 47 8.3 31 -0.6 54 54 SW 14 22 30.21 1023 10 16 N/A
1:53 pm 13:53 Sunny 51 10.6 31 -0.6 46 46 SW 20 31 30.16 1022 10 16 N/A
2:53 pm 14:53 Mostly Sunny 53 11.7 26 -3.3 35 35 WSW 16 26 30.14 1021 10 16 N/A
3:53 pm 15:53 Mostly Sunny 53 11.7 27 -2.8 37 37 WSW 20 31 30.11 1020 10 16 N/A
4:53 pm 16:53 Mostly Cloudy 54 12.2 25 -3.9 33 33 W 15 24 30.09 1019 10 16 N/A
5:53 pm 17:53 Mostly Cloudy 53 11.7 24 -4.4 32 32 W 17 28 30.09 1019 10 16 N/A
6:53 pm 18:53 Cloudy 51 10.6 25 -3.9 36 36 W 21 33 30.09 1019 10 16 N/A
7:53 pm 19:53 Cloudy 48 8.9 27 -2.8 44 44 W 12 19 30.10 1019 10 16 N/A
8:53 pm 20:53 Cloudy 45 7.2 28 -2.2 52 52 SW 12 19 30.10 1019 10 16 N/A
9:53 pm 21:53 Cloudy 44 6.7 29 -1.7 55 55 WSW 12 19 30.12 1020 10 16 N/A
10:53 pm 22:53 Cloudy 45 7.2 29 -1.7 54 54 W 15 24 30.11 1020 10 16 N/A
11:53 pm 23:53 Clear 42 5.6 30 -1.1 62 62 WSW 12 19 30.14 1021 10 16 N/A

Powered by AerisWeather